CEB2H RPLL-RPVM

Flight info

Callsign CEB2H
Flight time N/A
Altitude 35000
Route IPATA2R IPATA W25 BATAY BATAY3P
Aircraft A339/H-SADE1E2E3GHIJ3J5M1P2RWXY/LB2D1

Departure

Time 2026-05-05 14:07
Airport Ninoy Aquino International Airport (RPLL)

Arrival

Time N/A
Airport Mactan Cebu International Airport (RPVM)
Time Latitude Longitude Altitude Speed Heading
2026-05-05 13:41 14.51607 121.01559 90 ft 0 kts 46°
2026-05-05 13:47 14.51598 121.01551 90 ft 2 kts 44°
2026-05-05 13:47 14.51588 121.01540 90 ft 2 kts 44°
2026-05-05 13:47 14.51577 121.01530 90 ft 2 kts 45°
2026-05-05 13:48 14.51566 121.01518 90 ft 2 kts 45°
2026-05-05 13:48 14.51557 121.01506 90 ft 2 kts 76°
2026-05-05 13:48 14.51556 121.01491 90 ft 2 kts 105°
2026-05-05 13:48 14.51562 121.01477 90 ft 0 kts 133°
2026-05-05 13:49 14.51560 121.01480 90 ft 3 kts 131°
2026-05-05 13:49 14.51529 121.01512 90 ft 7 kts 135°
2026-05-05 13:49 14.51506 121.01537 90 ft 2 kts 135°
2026-05-05 13:49 14.51503 121.01540 90 ft 0 kts 135°
2026-05-05 13:51 14.51502 121.01540 90 ft 0 kts 135°
2026-05-05 13:52 14.51493 121.01550 90 ft 3 kts 134°
2026-05-05 13:52 14.51464 121.01581 90 ft 7 kts 134°
2026-05-05 13:52 14.51419 121.01627 90 ft 10 kts 134°
2026-05-05 13:52 14.51361 121.01687 90 ft 12 kts 135°
2026-05-05 13:53 14.51295 121.01755 90 ft 13 kts 134°
2026-05-05 13:53 14.51227 121.01826 90 ft 14 kts 135°
2026-05-05 13:53 14.51155 121.01900 90 ft 14 kts 135°
2026-05-05 13:53 14.51083 121.01974 90 ft 9 kts 136°
2026-05-05 13:54 14.51054 121.01982 90 ft 4 kts 208°
2026-05-05 13:54 14.51024 121.01954 90 ft 7 kts 232°
2026-05-05 13:54 14.50993 121.01901 90 ft 10 kts 240°
2026-05-05 13:54 14.50951 121.01826 90 ft 13 kts 240°
2026-05-05 13:55 14.50899 121.01731 90 ft 16 kts 240°
2026-05-05 13:55 14.50833 121.01613 90 ft 20 kts 240°
2026-05-05 13:55 14.50752 121.01472 90 ft 24 kts 240°
2026-05-05 13:55 14.50670 121.01318 90 ft 24 kts 240°
2026-05-05 13:56 14.50583 121.01164 90 ft 24 kts 240°
2026-05-05 13:56 14.50502 121.01018 90 ft 23 kts 240°
2026-05-05 13:56 14.50421 121.00873 90 ft 22 kts 240°
2026-05-05 13:56 14.50344 121.00734 90 ft 22 kts 240°
2026-05-05 13:57 14.50268 121.00596 90 ft 21 kts 240°
2026-05-05 13:57 14.50192 121.00461 90 ft 21 kts 240°
2026-05-05 13:57 14.50118 121.00327 90 ft 21 kts 240°
2026-05-05 13:57 14.50070 121.00240 90 ft 21 kts 240°
2026-05-05 13:58 14.50021 121.00153 90 ft 20 kts 240°
2026-05-05 13:58 14.49903 120.99964 90 ft 6 kts 186°
2026-05-05 13:58 14.49900 120.99964 90 ft 0 kts 179°
2026-05-05 14:04 14.49896 120.99964 90 ft 2 kts 176°
2026-05-05 14:04 14.49861 120.99972 90 ft 8 kts 163°
2026-05-05 14:04 14.49804 121.00013 90 ft 9 kts 120°
2026-05-05 14:05 14.49815 121.00068 90 ft 2 kts 60°
2026-05-05 14:05 14.49815 121.00069 90 ft 0 kts 60°
2026-05-05 14:05 14.49816 121.00069 90 ft 0 kts 60°
2026-05-05 14:05 14.49819 121.00075 90 ft 0 kts 60°
2026-05-05 14:06 14.49820 121.00076 90 ft 1 kts 60°
2026-05-05 14:06 14.49873 121.00176 90 ft 45 kts 60°
2026-05-05 14:06 14.50147 121.00667 90 ft 110 kts 60°
2026-05-05 14:06 14.50627 121.01530 94 ft 161 kts 61°
2026-05-05 14:07 14.51248 121.02537 534 ft 165 kts 73°
2026-05-05 14:07 14.51813 121.03558 963 ft 170 kts 56°
2026-05-05 14:07 14.52222 121.04244 1330 ft 171 kts 61°
2026-05-05 14:07 14.52596 121.04943 1841 ft 165 kts 62°
2026-05-05 14:08 14.53314 121.06303 2554 ft 170 kts 62°
2026-05-05 14:08 14.54680 121.08826 3340 ft 202 kts 61°
2026-05-05 14:09 14.56285 121.14685 4978 ft 260 kts 122°
2026-05-05 14:09 14.54981 121.16022 5473 ft 273 kts 141°
2026-05-05 14:10 14.53422 121.17204 6166 ft 277 kts 142°
2026-05-05 14:10 14.51883 121.18413 6917 ft 279 kts 139°
2026-05-05 14:10 14.50394 121.19716 7612 ft 282 kts 136°
2026-05-05 14:10 14.48958 121.21072 8300 ft 284 kts 135°
2026-05-05 14:11 14.47517 121.22462 8991 ft 286 kts 135°
2026-05-05 14:11 14.46054 121.23878 9710 ft 287 kts 134°
2026-05-05 14:11 14.44609 121.25280 10348 ft 291 kts 135°
2026-05-05 14:11 14.43082 121.26762 10692 ft 307 kts 135°
2026-05-05 14:12 14.41499 121.28298 11033 ft 321 kts 135°
2026-05-05 14:12 14.39845 121.29900 11602 ft 327 kts 135°
2026-05-05 14:12 14.38171 121.31519 12239 ft 330 kts 135°
2026-05-05 14:12 14.36502 121.33134 12846 ft 333 kts 135°
2026-05-05 14:13 14.34809 121.34772 13442 ft 336 kts 135°
2026-05-05 14:13 14.33079 121.36448 14013 ft 340 kts 135°
2026-05-05 14:13 14.31347 121.38124 14592 ft 343 kts 135°
2026-05-05 14:13 14.29596 121.39819 15153 ft 346 kts 135°
2026-05-05 14:14 14.27837 121.41521 15708 ft 349 kts 135°
2026-05-05 14:14 14.26062 121.43237 16259 ft 352 kts 136°
2026-05-05 14:14 14.24263 121.44977 16798 ft 355 kts 136°
2026-05-05 14:14 14.22458 121.46721 17310 ft 359 kts 136°
2026-05-05 14:15 14.20615 121.48497 17857 ft 361 kts 136°
2026-05-05 14:15 14.18787 121.50260 18383 ft 364 kts 136°
2026-05-05 14:15 14.16925 121.52056 18912 ft 367 kts 136°
2026-05-05 14:15 14.15056 121.53861 19445 ft 369 kts 136°
2026-05-05 14:16 14.13153 121.55699 19955 ft 372 kts 136°
2026-05-05 14:16 14.11260 121.57526 20457 ft 375 kts 136°
2026-05-05 14:16 14.09343 121.59377 20967 ft 377 kts 136°
2026-05-05 14:16 14.07439 121.61214 21465 ft 379 kts 136°
2026-05-05 14:17 14.05499 121.63084 21952 ft 381 kts 136°
2026-05-05 14:17 14.03557 121.64954 22435 ft 384 kts 136°
2026-05-05 14:17 14.01592 121.66847 22901 ft 386 kts 137°
2026-05-05 14:17 13.99635 121.68733 23337 ft 389 kts 137°
2026-05-05 14:18 13.97625 121.70672 23772 ft 393 kts 137°
2026-05-05 14:18 13.95624 121.72603 24190 ft 396 kts 137°
2026-05-05 14:18 13.93598 121.74558 24622 ft 399 kts 137°
2026-05-05 14:18 13.91564 121.76518 25041 ft 403 kts 137°
2026-05-05 14:19 13.89274 121.78725 25499 ft 406 kts 137°
2026-05-05 14:19 13.87177 121.80684 25914 ft 409 kts 140°
2026-05-05 14:19 13.84955 121.82533 26333 ft 411 kts 143°
2026-05-05 14:19 13.82658 121.84281 26732 ft 413 kts 144°
2026-05-05 14:20 13.80332 121.86033 27132 ft 416 kts 144°
2026-05-05 14:20 13.77965 121.87813 27523 ft 418 kts 144°
2026-05-05 14:20 13.75608 121.89586 27890 ft 421 kts 144°
2026-05-05 14:20 13.73216 121.91387 28254 ft 424 kts 144°
2026-05-05 14:21 13.70852 121.93167 28599 ft 427 kts 144°
2026-05-05 14:21 13.68418 121.95001 28947 ft 430 kts 144°
2026-05-05 14:21 13.65976 121.96843 29310 ft 433 kts 144°
2026-05-05 14:21 13.61234 122.00417 29986 ft 436 kts 144°
2026-05-05 14:22 13.56350 122.04096 30564 ft 440 kts 145°
2026-05-05 14:22 13.52008 122.07363 31020 ft 444 kts 145°
2026-05-05 14:22 13.49497 122.09252 31300 ft 448 kts 145°
2026-05-05 14:22 13.46983 122.11142 31614 ft 451 kts 145°
2026-05-05 14:23 13.44004 122.13384 31956 ft 454 kts 145°
2026-05-05 14:23 13.38852 122.17256 32526 ft 457 kts 145°
2026-05-05 14:23 13.33578 122.21219 33083 ft 461 kts 145°